Погода в Асьюте

Египет     27°11′15″N   31°11′09″E
В апреле 2022 года жителям России запретили посещать сайт meteo.paraplan.net по решению Генеральной прокуратуры. Аудитория сайта уменьшилась в 10 раз. Владельцы сайта не видят смысла в поддержке погодного сервера в таких условиях. Сайт будет закрыт в октябре.
темп.,
°C
ветер,
м/с
пор.,
м/с
влажн.,
%
обл.,
%
осадки,
мм/ч
давл.,
гПа
погр.,
м
30 сентября, пт
пт3023:00+32св714240 0.0 1009408
02:00+31св712250 0.0 1009293
05:00+28зсз01320 0.0 101020
08:00+32всв35250 0.0 1011482
11:00+40в57140 0.0 10102297
14:00+42св46110 0.0 10083548
17:00+40св811120 0.0 1008630
20:00+36св916150 0.0 1010435
1 октября, сб
сб123:00+32св814250 0.0 1011382
02:00+30ссв49300 0.0 1011229
05:00+29с44300 0.0 101258
08:00+32св46250 0.0 1013366
11:00+39св44140 0.0 10121629
14:00+42с45110 0.0 10093369
17:00+40св6990 0.0 1009330
20:00+35ссв814190 0.0 1011367
2 октября, вс
вс223:00+32с612230 0.0 1011240
02:00+29с59300 0.0 1011218
05:00+26ссз35340 0.0 1011116
08:00+28ссз56340 0.0 1011443
11:00+34сз66200 0.0 10101021
14:00+37ссз55140 0.0 10071552
17:00+35ссз57130 0.0 1006313
20:00+31ссз45190 0.0 100775
3 октября, пн
пн323:00+30св58220 0.0 1007123
02:00+28ссз34290 0.0 100744
05:00+26с35340 0.0 100777
08:00+30с58290 0.0 1008514
11:00+36ссз67200 0.0 10071315
14:00+38ссз77170 0.0 10051900
17:00+36ссз79210 0.0 1005875
20:00+31с612270 0.0 1007321
4 октября, вт
вт423:00+28с712390 0.0 1008404
02:00+25с611500 0.0 1008364
05:00+22ссз47570 0.0 1009229
08:00+24с57460 0.0 1011521
11:00+31ссз56210 0.0 10101028
14:00+34ссз66150 0.0 10081377
17:00+32с57180 0.0 1009434
20:00+28с47250 0.0 1011115